Location: ????????
(60.4333°N, 46.4710°E)
Time: 03:39:13
(UTC+00:00)

Meteor 1-11 Rocket - Pass Details

Date: 25 November 2020
Orbit: 832 x 915 km, 81.2° (Epoch: 19 January)

Event Time Altitude Azimuth Distance (km) Brightness Sun altitude
Rises 14:34:41 0° 341° (NNW) 3,430 7.0 -17.3°
Reaches altitude 10° 14:37:21 10° 351° (N) 2,502 6.1 -17.6°
Maximum altitude 14:42:27 33° 55° (NE) 1,426 4.4 -18.2°
Enters shadow 14:43:22 31° 73° (ENE) 1,476 4.4 -18.3°
